RYR86FV EIDW-LEMH

Flight info

Callsign RYR86FV
Flight time N/A
Altitude 37000
Route PESIT2J PESIT DCT BAKUR DCT GUBJE DCT GISOK DCT TACQI DCT MANIG DCT KORER UM616 TUPAR DCT CNA DCT SECHE DCT AGN DCT TOU DCT LOMRA DCT ROCAN DCT GEANT DCT GIR DCT SALON DCT SULID DCT DIPES N727 SARGO
Aircraft B738/M-SDE2E3FGHIRWXY/LB1

Departure

Time N/A
Airport Dublin Airport (EIDW)

Arrival

Time 2026-05-05 23:03
Airport Menorca Airport (LEMH)
Time Latitude Longitude Altitude Speed Heading
2026-05-05 22:02 44.93309 0.18521 36940 ft 448 kts 156°
2026-05-05 22:02 44.87707 0.22293 36964 ft 449 kts 156°
2026-05-05 22:03 44.82062 0.26086 36972 ft 449 kts 156°
2026-05-05 22:03 44.76444 0.29851 36974 ft 449 kts 156°
2026-05-05 22:04 44.70804 0.33625 36975 ft 449 kts 156°
2026-05-05 22:04 44.65127 0.37414 36964 ft 449 kts 157°
2026-05-05 22:05 44.59487 0.41169 36955 ft 450 kts 157°
2026-05-05 22:05 44.53862 0.44907 36963 ft 449 kts 157°
2026-05-05 22:06 44.48216 0.48650 36966 ft 448 kts 157°
2026-05-05 22:06 44.42597 0.52367 36960 ft 448 kts 158°
2026-05-05 22:07 44.36927 0.56088 36964 ft 447 kts 158°
2026-05-05 22:07 44.31304 0.59761 36968 ft 446 kts 158°
2026-05-05 22:08 44.25688 0.63423 36956 ft 446 kts 158°
2026-05-05 22:08 44.20054 0.67090 36963 ft 445 kts 158°
2026-05-05 22:09 44.14484 0.70708 36959 ft 445 kts 158°
2026-05-05 22:09 44.08936 0.74304 36961 ft 444 kts 158°
2026-05-05 22:10 44.03341 0.77923 36965 ft 443 kts 158°
2026-05-05 22:10 43.97746 0.81533 36958 ft 443 kts 159°
2026-05-05 22:11 43.92149 0.85185 36968 ft 445 kts 155°
2026-05-05 22:11 43.89562 0.87572 36908 ft 451 kts 143°
2026-05-05 22:11 43.87329 0.90552 37067 ft 452 kts 135°
2026-05-05 22:11 43.85406 0.94100 36902 ft 460 kts 126°
2026-05-05 22:12 43.83725 0.97800 37180 ft 454 kts 126°
2026-05-05 22:12 43.82018 1.01548 36940 ft 460 kts 126°
2026-05-05 22:12 43.80312 1.05240 37064 ft 457 kts 126°
2026-05-05 22:12 43.78573 1.08950 36951 ft 460 kts 127°
2026-05-05 22:13 43.76828 1.12638 37019 ft 459 kts 127°
2026-05-05 22:13 43.73280 1.20091 37007 ft 460 kts 127°
2026-05-05 22:14 43.69768 1.27458 37003 ft 462 kts 127°
2026-05-05 22:14 43.66067 1.34717 36988 ft 460 kts 132°
2026-05-05 22:15 43.62037 1.41537 36963 ft 460 kts 133°
2026-05-05 22:15 43.57953 1.48387 36963 ft 461 kts 133°
2026-05-05 22:16 43.53929 1.55220 36965 ft 461 kts 133°
2026-05-05 22:16 43.49888 1.62106 36973 ft 461 kts 133°
2026-05-05 22:17 43.45874 1.68932 36986 ft 460 kts 133°
2026-05-05 22:17 43.41846 1.75759 36991 ft 458 kts 133°
2026-05-05 22:18 43.37829 1.82553 36982 ft 458 kts 133°
2026-05-05 22:18 43.35636 1.85689 36878 ft 450 kts 148°
2026-05-05 22:18 43.32980 1.87764 36999 ft 435 kts 163°
2026-05-05 22:18 43.30094 1.88875 36921 ft 428 kts 177°
2026-05-05 22:19 43.27181 1.89130 37167 ft 418 kts 181°
2026-05-05 22:19 43.24244 1.89339 36989 ft 426 kts 180°
2026-05-05 22:19 43.21319 1.89579 37071 ft 426 kts 180°
2026-05-05 22:20 43.15306 1.90130 37022 ft 431 kts 180°
2026-05-05 22:20 43.09314 1.90704 37013 ft 434 kts 180°
2026-05-05 22:21 43.03310 1.91280 37004 ft 432 kts 180°
2026-05-05 22:21 42.97361 1.91848 36990 ft 424 kts 180°
2026-05-05 22:22 42.91454 1.92407 36980 ft 423 kts 180°
2026-05-05 22:22 42.85627 1.92954 36964 ft 423 kts 180°
2026-05-05 22:23 42.79730 1.93508 36967 ft 423 kts 180°
2026-05-05 22:23 42.73868 1.94059 36966 ft 424 kts 180°
2026-05-05 22:24 42.68027 1.95365 36917 ft 437 kts 163°
2026-05-05 22:24 42.65265 1.97135 37054 ft 442 kts 154°
2026-05-05 22:24 42.62729 1.99604 36941 ft 452 kts 144°
2026-05-05 22:24 42.60378 2.02369 37111 ft 449 kts 144°
2026-05-05 22:25 42.57975 2.05164 36975 ft 453 kts 145°
2026-05-05 22:25 42.53162 2.10641 36960 ft 454 kts 146°
2026-05-05 22:26 42.48288 2.16102 36960 ft 455 kts 145°
2026-05-05 22:26 42.43394 2.21578 36947 ft 456 kts 146°
2026-05-05 22:27 42.38512 2.27034 36926 ft 456 kts 146°
2026-05-05 22:27 42.33602 2.32510 36931 ft 456 kts 146°
2026-05-05 22:28 42.28741 2.37918 36953 ft 454 kts 146°
2026-05-05 22:28 42.23859 2.43337 36961 ft 453 kts 146°
2026-05-05 22:29 42.18968 2.48755 36941 ft 452 kts 146°
2026-05-05 22:29 42.14124 2.54109 36897 ft 451 kts 147°
2026-05-05 22:30 42.09279 2.59403 36926 ft 448 kts 148°
2026-05-05 22:30 42.04316 2.64385 36942 ft 446 kts 150°
2026-05-05 22:31 41.99312 2.69311 36967 ft 444 kts 150°
2026-05-05 22:31 41.94318 2.74271 36958 ft 443 kts 150°
2026-05-05 22:32 41.89385 2.79191 36940 ft 444 kts 150°
2026-05-05 22:32 41.84411 2.84149 36562 ft 448 kts 150°
2026-05-05 22:32 41.81918 2.86634 36335 ft 441 kts 150°
2026-05-05 22:33 41.79462 2.89083 36055 ft 434 kts 150°
2026-05-05 22:33 41.77078 2.91456 35797 ft 429 kts 151°
2026-05-05 22:33 41.74680 2.93838 35554 ft 426 kts 151°
2026-05-05 22:33 41.72324 2.96172 35289 ft 423 kts 151°
2026-05-05 22:34 41.69948 2.98523 35045 ft 421 kts 151°
2026-05-05 22:34 41.67594 3.00851 34804 ft 418 kts 152°
2026-05-05 22:34 41.65268 3.03148 34551 ft 416 kts 152°
2026-05-05 22:34 41.62938 3.05449 34310 ft 415 kts 152°
2026-05-05 22:35 41.60642 3.07713 34081 ft 413 kts 152°
2026-05-05 22:35 41.58324 3.09998 33829 ft 412 kts 152°
2026-05-05 22:35 41.56018 3.12266 33545 ft 410 kts 152°
2026-05-05 22:35 41.53735 3.14514 33270 ft 409 kts 152°
2026-05-05 22:36 41.51445 3.16766 33007 ft 408 kts 152°
2026-05-05 22:36 41.49163 3.18986 32729 ft 406 kts 154°
2026-05-05 22:36 41.46785 3.21042 32446 ft 402 kts 156°
2026-05-05 22:36 41.44431 3.22970 32209 ft 399 kts 157°
2026-05-05 22:37 41.42050 3.24891 31945 ft 398 kts 157°
2026-05-05 22:37 41.40480 3.26158 31767 ft 398 kts 157°
2026-05-05 22:37 41.37338 3.28706 31421 ft 396 kts 157°
2026-05-05 22:37 41.35777 3.29978 31258 ft 395 kts 157°
2026-05-05 22:38 41.33430 3.31896 31003 ft 394 kts 157°
2026-05-05 22:38 41.30338 3.34426 30673 ft 392 kts 157°
2026-05-05 22:38 41.28803 3.35682 30506 ft 390 kts 157°
2026-05-05 22:38 41.26490 3.37577 30261 ft 385 kts 157°
2026-05-05 22:39 41.24212 3.39444 30009 ft 382 kts 157°
2026-05-05 22:39 41.21965 3.41281 29727 ft 381 kts 157°
2026-05-05 22:39 41.19694 3.43131 29450 ft 380 kts 157°
2026-05-05 22:39 41.17457 3.44952 29169 ft 379 kts 157°
2026-05-05 22:40 41.15211 3.46781 28870 ft 374 kts 157°
2026-05-05 22:40 41.13022 3.48564 28512 ft 370 kts 157°
2026-05-05 22:40 41.10810 3.50359 28126 ft 375 kts 157°
2026-05-05 22:40 41.08559 3.52173 27820 ft 387 kts 157°
2026-05-05 22:41 41.06217 3.54060 27398 ft 395 kts 157°
2026-05-05 22:41 41.03861 3.55966 26955 ft 395 kts 156°
2026-05-05 22:41 41.01537 3.57857 26651 ft 388 kts 157°
2026-05-05 22:41 40.99260 3.59708 26226 ft 386 kts 157°
2026-05-05 22:42 40.96994 3.61545 25846 ft 382 kts 157°
2026-05-05 22:42 40.94727 3.63383 25495 ft 378 kts 157°
2026-05-05 22:42 40.92478 3.65208 25104 ft 376 kts 157°
2026-05-05 22:42 40.90251 3.67008 24742 ft 373 kts 157°
2026-05-05 22:43 40.88066 3.68770 24393 ft 370 kts 157°
2026-05-05 22:43 40.85870 3.70537 24021 ft 368 kts 157°
2026-05-05 22:43 40.83684 3.72226 23621 ft 363 kts 163°
2026-05-05 22:43 40.81327 3.73339 23044 ft 352 kts 176°
2026-05-05 22:44 40.78942 3.73855 22786 ft 341 kts 179°
2026-05-05 22:44 40.76660 3.74353 22322 ft 335 kts 178°
2026-05-05 22:44 40.74326 3.74872 21433 ft 341 kts 178°
2026-05-05 22:44 40.71986 3.75393 20844 ft 339 kts 178°
2026-05-05 22:45 40.69676 3.75915 20396 ft 333 kts 178°
2026-05-05 22:45 40.67398 3.76431 19851 ft 330 kts 177°
2026-05-05 22:45 40.65139 3.76939 19308 ft 332 kts 177°
2026-05-05 22:45 40.62857 3.77459 19005 ft 328 kts 177°
2026-05-05 22:46 40.60619 3.77966 18580 ft 329 kts 177°
2026-05-05 22:46 40.58371 3.78477 18292 ft 325 kts 177°
2026-05-05 22:46 40.56136 3.78981 17884 ft 324 kts 176°
2026-05-05 22:46 40.53935 3.79478 17540 ft 321 kts 176°
2026-05-05 22:47 40.51757 3.79969 17190 ft 319 kts 176°
2026-05-05 22:47 40.47025 3.81035 16466 ft 314 kts 176°
2026-05-05 22:47 40.44867 3.81520 16133 ft 312 kts 176°
2026-05-05 22:48 40.42729 3.82000 15807 ft 311 kts 176°
2026-05-05 22:48 40.40630 3.82471 15489 ft 309 kts 176°
2026-05-05 22:48 40.38481 3.82952 15158 ft 309 kts 176°
2026-05-05 22:48 40.36375 3.83423 14819 ft 308 kts 176°
2026-05-05 22:49 40.34266 3.83895 14519 ft 308 kts 176°
2026-05-05 22:49 40.32181 3.84362 14188 ft 304 kts 176°
2026-05-05 22:49 40.30098 3.84830 13860 ft 299 kts 175°
2026-05-05 22:49 40.28049 3.85289 13531 ft 300 kts 176°
2026-05-05 22:50 40.25969 3.85751 13199 ft 304 kts 175°
2026-05-05 22:50 40.23903 3.86210 12854 ft 304 kts 175°
2026-05-05 22:50 40.21806 3.86677 12505 ft 301 kts 175°
2026-05-05 22:50 40.19763 3.87134 12185 ft 299 kts 175°
2026-05-05 22:51 40.17716 3.87591 11874 ft 297 kts 175°
2026-05-05 22:51 40.15680 3.88044 11553 ft 296 kts 175°
2026-05-05 22:51 40.13661 3.88493 11237 ft 295 kts 175°
2026-05-05 22:51 40.11633 3.88943 10921 ft 295 kts 175°
2026-05-05 22:52 40.09631 3.89387 10605 ft 294 kts 175°
2026-05-05 22:52 40.07605 3.89836 10287 ft 294 kts 174°
2026-05-05 22:52 40.05584 3.90283 10013 ft 292 kts 174°
2026-05-05 22:52 40.03623 3.90720 9912 ft 287 kts 175°
2026-05-05 22:53 40.01625 3.91159 9427 ft 294 kts 174°
2026-05-05 22:53 39.99624 3.91599 9273 ft 287 kts 174°
2026-05-05 22:53 39.97622 3.92038 8816 ft 294 kts 174°
2026-05-05 22:53 39.95659 3.92416 8637 ft 287 kts 176°
2026-05-05 22:54 39.93654 3.92746 8257 ft 287 kts 176°
2026-05-05 22:54 39.91700 3.93054 7978 ft 284 kts 176°
2026-05-05 22:54 39.89731 3.93359 7673 ft 283 kts 177°
2026-05-05 22:54 39.87791 3.93653 7579 ft 275 kts 177°
2026-05-05 22:55 39.85876 3.93940 7342 ft 285 kts 177°
2026-05-05 22:55 39.83902 3.94228 7087 ft 284 kts 176°
2026-05-05 22:55 39.81941 3.94616 6791 ft 287 kts 170°
2026-05-05 22:55 39.80030 3.95377 6518 ft 288 kts 160°
2026-05-05 22:56 39.78275 3.96648 6195 ft 294 kts 144°
2026-05-05 22:56 39.76769 3.98459 5914 ft 291 kts 138°
2026-05-05 22:56 39.75396 4.00285 5698 ft 278 kts 137°
2026-05-05 22:56 39.74099 4.02065 5609 ft 261 kts 136°
2026-05-05 22:57 39.73292 4.03189 5538 ft 249 kts 137°
2026-05-05 22:57 39.71716 4.05165 5282 ft 231 kts 141°
2026-05-05 22:57 39.70938 4.06100 5084 ft 227 kts 142°
2026-05-05 22:57 39.69798 4.07478 4784 ft 220 kts 142°
2026-05-05 22:58 39.68677 4.08840 4399 ft 221 kts 142°
2026-05-05 22:58 39.67554 4.10205 3944 ft 220 kts 142°
2026-05-05 22:58 39.66466 4.11586 3528 ft 217 kts 134°
2026-05-05 22:58 39.65744 4.13329 3142 ft 219 kts 113°
2026-05-05 22:59 39.65604 4.15315 2998 ft 233 kts 77°
2026-05-05 22:59 39.66477 4.16989 2982 ft 223 kts 27°
2026-05-05 22:59 39.67893 4.17676 3022 ft 215 kts
2026-05-05 22:59 39.69357 4.18191 3003 ft 219 kts
2026-05-05 23:00 39.72341 4.18991 2745 ft 222 kts
2026-05-05 23:00 39.73861 4.19302 2460 ft 217 kts
2026-05-05 23:00 39.75331 4.19604 2171 ft 211 kts
2026-05-05 23:01 39.76755 4.19896 1908 ft 202 kts
2026-05-05 23:01 39.78077 4.20173 1671 ft 187 kts
2026-05-05 23:01 39.79334 4.20433 1378 ft 175 kts
2026-05-05 23:01 39.79630 4.20496 1331 ft 170 kts
2026-05-05 23:02 39.80725 4.20819 1102 ft 152 kts
2026-05-05 23:02 39.81725 4.20946 955 ft 142 kts 355°
2026-05-05 23:02 39.82702 4.21151 786 ft 140 kts 12°
2026-05-05 23:02 39.83655 4.21407 607 ft 141 kts 360°
2026-05-05 23:03 39.84580 4.21522 373 ft 131 kts
2026-05-05 23:03 39.85459 4.21698 287 ft 120 kts
2026-05-05 23:03 39.86156 4.21841 303 ft 81 kts 10°
2026-05-05 23:03 39.86574 4.21929 302 ft 41 kts
2026-05-05 23:04 39.86725 4.21978 302 ft 13 kts 20°
2026-05-05 23:04 39.86815 4.22039 300 ft 17 kts 27°
2026-05-05 23:04 39.86922 4.22148 299 ft 15 kts 49°
2026-05-05 23:04 39.86929 4.22215 302 ft 1 kts 115°
2026-05-05 23:05 39.86900 4.22233 299 ft 9 kts 181°
2026-05-05 23:05 39.86790 4.22213 300 ft 22 kts 188°
2026-05-05 23:05 39.86613 4.22176 294 ft 24 kts 189°
2026-05-05 23:05 39.86552 4.22208 291 ft 10 kts 119°
2026-05-05 23:06 39.86521 4.22311 290 ft 13 kts 144°
2026-05-05 23:06 39.86434 4.22309 287 ft 12 kts 190°
2026-05-05 23:06 39.86349 4.22297 287 ft 12 kts 167°
2026-05-05 23:06 39.86318 4.22378 285 ft 6 kts 100°
2026-05-05 23:07 39.86316 4.22394 285 ft 0 kts 99°